Envisat - Orbit

View from above orbital plane
View from above orbital plane
View from above satellite
View from above satellite

Ground track
Ground track

The orbit data is extracted from the following two-line orbital elements,

1 27386U 02009A   13140.75004424  .00000120  00000-0  54487-4 0  3957
2 27386 098.4291 209.5911 0001214 084.6981 275.4324 14.37610751587194
Epoch (UTC): 20 May 2013 18:00:03
Eccentricity: 0.0001214
inclination: 98.4291°
perigee height: 765 km
apogee height: 767 km
right ascension of ascending node: 209.5911°
argument of perigee: 84.6981°
revolutions per day: 14.37610751
mean anomaly at epoch: 275.4324°
orbit number at epoch: 58719

The dashed part of the orbit path shows where the satellite is in the earth's shadow,  

Developed and maintained by Chris Peat, Heavens-Above GmbH. Please read the updated FAQ before sending e-mail. Imprint. DLR